Vertical_Velocity
-1 -2 -10 -5 -1 -2 -1 -1 -6 -10 5 13 -1 4 3 -5 -3 -2 -0 -1 -3 3 7 -12 1 4 1 3 -3 -0 3 -6 3 -1 -0 1 -1 -0
-1 -2 -12 -7 -1 -3 -2 1 2 -8 -16 1 6 -0 5 0 -3 -1 0 -2 1 -2 -4 -1 -6 1 4 1 7 1 -2 -4 -3 -3 -3 -4 3 1
-5 1 -1 -1 4 3 2 1 -4 -3 -18 17 -2 2 -2 4 3 -2 -2 2 1 1 1 -3 3 0 2 -1 -2 -3 -2 3 -1 1 1 -1 -1 -5
2 -2 -3 -2 1 -1 0 2 -0 2 -14 4 5 8 -1 -4 5 4 -1 -6 1 -0 -1 -1 5 4 9 0 2 3 9 -1 -7 -4 -2 -5 1 -2
-2 -3 -1 -1 1 1 -0 -0 0 2 -1 -11 7 2 5 -0 0 5 2 0 -4 5 -3 -1 -2 3 9 7 7 9 7 10 1 -4 -6 -2 -4 -2
-2 -4 -1 -1 -2 -0 -2 -1 -4 -1 0 -1 -3 1 2 7 -0 -4 -2 0 -4 -4 3 -2 -1 1 2 -4 6 9 3 9 10 1 6 1 2 -1
-2 -3 -3 -1 -1 -3 -1 3 -1 -1 1 0 1 -2 3 4 -1 -2 -3 2 0 -9 5 -2 -4 32 -4 -4 4 9 3 1 5 7 -1 -1 -3 -0
-3 -1 -1 0 -1 -1 0 -1 -2 -1 2 1 0 -1 -0 2 2 -1 1 -2 -2 -12 2 1 -5 4 -3 1 3 -3 -4 3 8 3 7 3 -4 -6
-2 -2 0 1 -1 -1 -0 1 -0 1 -3 2 2 0 1 3 1 -1 -1 -2 2 -4 1 4 0 -9 -6 0 -3 2 6 1 -2 2 3 -3 -7 -1
-2 -3 -1 1 -2 -1 1 1 0 -1 -1 0 3 4 0 -0 -1 -2 -6 -1 2 1 -12 7 -2 1 -6 -1 -6 -7 -2 1 1 -3 -1 -2 -3 -3
-1 -4 -3 -1 0 -0 -0 1 1 0 1 -0 -1 0 2 -0 -1 -2 -3 -1 3 -3 -10 2 -3 -0 -6 -1 2 -2 -5 1 1 -1 -9 -6 -6 -4
-0 -1 -1 0 -0 0 0 -0 2 1 0 1 1 0 0 0 -2 -1 -2 1 2 -2 -6 5 -8 -1 0 1 1 1 -4 -7 -8 -0 2 -8 -9 -8
1 2 -1 0 -0 -1 -0 0 2 1 1 0 0 0 -0 -1 -1 1 2 2 1 -0 -8 -1 0 -1 6 2 -3 -1 0 1 -1 -2 -2 -1 -4 -10
-0 -1 -1 0 1 -0 -0 2 2 2 0 1 1 0 1 1 1 1 1 -0 0 -4 -1 6 3 -2 -1 -2 -2 -6 -4 -2 3 5 2 1 -0 -5
-0 -1 0 1 0 1 1 2 2 2 2 1 1 1 1 2 1 1 1 1 -1 -2 1 2 -1 2 3 0 -2 -4 2 -2 3 4 2 3 1 0
-1 -2 -1 1 3 1 1 1 1 1 2 1 1 1 1 2 2 2 1 1 2 0 1 1 0 2 2 1 3 -3 -1 6 0 0 1 2 2 3
-1 0 -1 -1 -0 1 1 0 1 0 2 2 2 1 1 0 1 2 1 1 1 0 -0 1 1 1 1 1 0 1 2 1 -1 -0 0 -2 -1 -2
0 0 -0 -0 1 1 -0 1 0 2 1 2 2 1 2 1 -0 0 2 1 0 -1 1 3 2 1 0 -0 0 -0 -1 -2 -3 -1 2 1 -2 -5
-0 1 -0 -1 0 1 2 -0 0 1 2 1 2 3 3 3 3 2 1 1 2 2 1 1 1 1 0 -1 -0 -2 -3 -2 -1 -0 1 1 -1 -3
0 -1 -0 -0 -0 0 0 1 1 1 1 2 2 1 1 2 2 1 1 1 1 2 1 0 -1 -0 1 0 -1 -2 -3 -2 -0 -1 -1 -0 -2 -0
0 -1 -1 0 0 0 0 0 1 2 0 0 1 1 1 1 2 2 2 3 3 1 1 2 -0 -1 -1 -1 -2 -1 -0 -1 -2 -1 -1 -0 -0 -0
0 0 -1 -1 0 0 0 0 0 1 1 1 1 1 1 1 1 1 1 1 1 1 1 1 1 1 -1 -2 -1 -1 -2 -1 0 -1 -2 -2 -2 -2
-1 -0 -0 -1 -0 -0 0 -0 -0 1 2 1 1 1 1 1 1 0 1 1 2 1 1 2 3 2 0 0 -1 -2 1 0 0 -1 0 0 -1 -0
Height
5476 5469 5462 5452 5445 5439 5434 5429 5426 5429 5434 5433 5434 5432 5431 5430 5433 5440 5445 5450 5458 5467 5479 5489 5504 5517 5529 5539 5547 5557 5568 5578 5589 5597 5608 5616 5626 5635
5460 5453 5445 5439 5433 5428 5423 5420 5416 5413 5416 5415 5419 5420 5419 5418 5419 5424 5429 5432 5436 5442 5451 5464 5479 5494 5507 5518 5524 5535 5547 5555 5565 5576 5587 5596 5607 5616
5445 5437 5431 5427 5422 5416 5410 5406 5402 5398 5398 5400 5401 5404 5406 5407 5408 5411 5415 5420 5424 5428 5433 5442 5454 5467 5483 5493 5503 5515 5527 5537 5546 5555 5564 5575 5586 5596
5431 5424 5418 5413 5407 5400 5394 5389 5384 5381 5377 5379 5381 5386 5387 5391 5394 5397 5400 5406 5413 5415 5421 5427 5437 5445 5457 5469 5483 5498 5507 5515 5524 5534 5544 5557 5563 5575
5419 5411 5404 5397 5391 5384 5377 5372 5367 5364 5360 5358 5361 5366 5367 5372 5377 5382 5386 5392 5399 5405 5410 5417 5422 5429 5438 5448 5463 5476 5485 5497 5508 5514 5525 5535 5544 5554
5406 5397 5389 5382 5376 5370 5364 5359 5353 5348 5344 5341 5342 5345 5348 5354 5358 5364 5370 5377 5385 5394 5400 5407 5413 5418 5423 5429 5444 5456 5466 5478 5489 5499 5508 5518 5526 5536
5394 5385 5377 5370 5363 5356 5350 5344 5338 5333 5329 5325 5325 5327 5332 5337 5341 5347 5353 5361 5372 5381 5389 5396 5404 5409 5410 5417 5427 5435 5446 5457 5468 5478 5486 5496 5506 5516
5383 5375 5367 5360 5352 5344 5335 5327 5321 5316 5313 5308 5308 5311 5315 5321 5326 5331 5339 5347 5358 5369 5376 5384 5393 5397 5401 5408 5415 5421 5429 5438 5449 5459 5469 5477 5487 5499
5373 5365 5359 5351 5342 5332 5322 5313 5306 5301 5296 5292 5293 5297 5301 5307 5312 5320 5325 5333 5346 5355 5365 5373 5379 5386 5392 5398 5405 5411 5417 5424 5430 5442 5452 5461 5470 5480
5365 5358 5351 5342 5332 5321 5311 5302 5295 5289 5284 5281 5283 5287 5291 5295 5301 5307 5314 5323 5334 5344 5353 5361 5368 5375 5382 5388 5394 5400 5407 5412 5418 5426 5435 5445 5454 5463
5357 5351 5344 5335 5326 5315 5304 5295 5287 5281 5276 5274 5274 5279 5283 5286 5292 5299 5305 5312 5324 5333 5342 5351 5357 5364 5370 5375 5382 5389 5395 5400 5406 5413 5420 5428 5436 5444
5352 5345 5339 5331 5322 5311 5300 5291 5282 5275 5271 5269 5269 5272 5276 5280 5285 5291 5296 5307 5317 5326 5334 5343 5347 5354 5359 5364 5369 5376 5383 5388 5394 5400 5406 5413 5419 5424
5348 5342 5336 5328 5319 5308 5298 5288 5280 5273 5269 5267 5267 5269 5272 5276 5280 5286 5293 5303 5312 5321 5327 5335 5341 5345 5350 5355 5359 5364 5369 5375 5380 5387 5393 5398 5402 5408
5344 5338 5333 5326 5318 5308 5298 5290 5282 5275 5271 5268 5268 5269 5272 5275 5280 5286 5294 5302 5309 5316 5324 5330 5335 5338 5342 5346 5349 5352 5357 5361 5367 5372 5377 5382 5386 5390
5339 5335 5330 5325 5318 5309 5301 5293 5287 5281 5276 5274 5273 5273 5275 5279 5283 5289 5294 5301 5307 5314 5320 5324 5328 5332 5335 5337 5339 5340 5343 5347 5352 5356 5361 5365 5370 5374
5335 5331 5328 5324 5318 5311 5305 5298 5292 5287 5283 5281 5279 5279 5281 5283 5287 5291 5296 5301 5306 5311 5315 5319 5322 5325 5327 5329 5330 5330 5331 5334 5338 5341 5345 5350 5355 5359
5331 5327 5325 5321 5318 5313 5307 5302 5297 5293 5290 5287 5286 5286 5286 5288 5290 5293 5297 5301 5305 5309 5312 5315 5318 5320 5321 5321 5321 5322 5322 5322 5322 5327 5333 5338 5341 5344
5328 5324 5321 5319 5316 5313 5309 5305 5301 5298 5296 5293 5291 5291 5291 5292 5293 5295 5298 5301 5304 5307 5311 5313 5316 5317 5318 5318 5318 5317 5316 5315 5315 5318 5323 5327 5330 5332
5324 5320 5317 5316 5314 5312 5310 5307 5304 5301 5300 5299 5297 5296 5296 5296 5296 5298 5300 5303 5305 5308 5310 5312 5314 5315 5316 5316 5315 5314 5314 5314 5315 5317 5320 5322 5323 5326
5320 5317 5314 5312 5311 5309 5308 5307 5305 5303 5302 5301 5300 5299 5299 5299 5300 5301 5302 5303 5305 5306 5308 5310 5312 5313 5313 5313 5313 5313 5313 5312 5313 5315 5316 5318 5319 5321
5316 5313 5310 5308 5306 5306 5305 5304 5303 5302 5301 5300 5300 5300 5300 5301 5301 5302 5303 5304 5305 5306 5308 5309 5310 5311 5312 5312 5312 5312 5312 5312 5312 5312 5311 5311 5312 5313
5312 5309 5307 5304 5302 5300 5300 5300 5299 5299 5298 5298 5298 5298 5298 5299 5300 5301 5301 5302 5303 5304 5305 5307 5308 5309 5309 5310 5310 5310 5310 5310 5309 5309 5309 5309 5308 5307
5308 5305 5303 5300 5298 5295 5294 5293 5294 5294 5294 5294 5294 5294 5294 5295 5296 5297 5298 5299 5300 5301 5302 5303 5305 5305 5306 5306 5306 5307 5306 5306 5306 5306 5306 5305 5305 5304